Location: Cottbus
(51.7000°N, 14.3000°E)
Time: 19:06:24
(UTC+01:00)

ISS - Pass Details

Date: 30 January 2019
Orbit: 403 x 411 km, 51.6° (Epoch: 20 February)

Event Time Altitude Azimuth Distance (km) Brightness Sun altitude
Rises 17:24:35 0° 244° (WSW) 2,328 2.6 -6.1°
Reaches altitude 10° 17:26:40 10° 240° (WSW) 1,471 0.7 -6.4°
Maximum altitude 17:29:55 57° 161° (SSE) 489 -3.4 -6.8°
Drops below altitude 10° 17:33:11 10° 82° (E) 1,481 -1.6 -7.3°
Enters shadow 17:33:17 - 82° (E) 1,525 -1.6 -7.3°
